[[{"header":{"parameterUnit":"m.s-1","parameterCategory":1,"la1":30.2991,"la2":30.254,"lo1":-89.0895,"lo2":-89.0444,"dy":0.0017,"dx":0.0017,"nx":28,"ny":28,"refTime":"2024-04-11T21:00:00:Z","depth":0,"parameterNumber":2,"parameterNumberName":"U-component_of_WINDS"},"data":[0,0,0,0,0,0,0,0,0,0,0,0,0,0,0,0,0,0,0,0,0,0,0,0,0,0,0,0,0,0,0,0,0,0,0,0,0,0,0,0,0,0,0,0,0,0,0,0,0,0,0,0,0,0,0,0,0,0,4.7471,4.7472,0,4.7603,4.7605,4.7606,4.7563,4.756,4.7557,4.7554,4.7692,4.7698,4.7704,0,0,0,0,0,0,0,0,0,0,0,0,0,4.7184,4.7189,4.7471,4.7473,4.7474,4.7603,4.7605,4.7607,4.7563,4.756,4.7556,4.7553,4.769,4.7697,4.7705,0,0,0,0,0,0,0,0,0,0,0,0,0,4.7312,4.7191,4.7471,4.7468,4.7469,4.7603,4.7605,4.7607,4.7564,4.756,4.7555,4.7551,4.7687,4.7697,4.7706,4.785,0,0,4.7735,4.7739,0,0,0,0,0,0,0,0,4.7304,4.7322,4.7467,4.7468,4.747,4.7562,4.7554,4.7689,4.7565,4.7528,4.7554,4.7549,4.7652,4.7664,4.7699,4.7857,4.7863,4.7736,4.7742,4.7746,4.7748,0,0,0,0,0,0,0,4.7296,4.7316,4.7523,4.7469,4.7471,4.7461,4.7475,4.7579,4.7613,4.7531,4.7528,4.7544,4.7652,4.769,4.7702,4.7865,4.7736,4.7744,4.775,4.7754,4.815,4.8154,0,0,0,0,0,0,4.7286,4.7309,4.7519,4.7527,4.7375,4.747,4.7485,4.7537,4.7611,4.7619,4.7548,4.7542,4.7676,4.7691,4.7706,4.7881,4.7746,4.7754,4.776,4.8145,4.8151,4.8156,0,0,0,0,0,0,4.728,4.7305,4.7514,4.7418,4.7443,4.7479,4.7538,4.7542,4.7579,4.7624,4.763,4.758,4.7673,4.7693,4.7815,4.7885,4.7759,4.7767,4.8139,4.8147,4.8153,4.8232,0,0,0,0,0,0,4.7272,4.7303,4.7357,4.7419,4.7449,4.762,4.7542,4.7547,4.7595,4.7588,4.7656,4.7663,4.7671,4.7801,4.7825,4.7896,4.7775,4.8133,4.8143,4.8151,4.8223,4.8241,4.8256,0,0,0,0,0,4.7261,4.7374,4.736,4.7386,4.7517,4.7624,4.7641,4.7647,4.7601,4.7657,4.7686,4.766,4.7874,4.7814,4.784,4.7916,4.8129,4.814,4.815,4.8216,4.8237,4.8256,0,0,0,0,0,0,4.732,4.7382,4.7367,4.7503,4.7559,4.7616,4.7686,4.767,4.774,4.7731,4.7737,4.7753,4.7878,4.7909,4.7841,4.806,4.7995,4.8011,4.8035,4.8056,4.8072,4.8062,4.7783,0,0,0,0,0,4.7349,4.7429,4.7479,4.7595,4.7623,4.765,4.7697,4.7697,4.7755,4.7778,4.7816,4.7874,4.7954,4.8007,4.8083,4.8227,4.8242,4.8292,4.8309,4.8322,4.8336,4.8416,4.8439,4.8192,4.8192,4.8191,0,0,4.7409,4.7453,4.7504,4.7608,4.765,4.7735,4.767,4.7761,4.7824,4.7792,4.791,4.794,4.8005,4.8139,4.82,4.8169,4.8408,4.8336,4.8346,4.8353,4.843,4.8453,4.8474,4.8199,4.8198,4.8197,0,0,4.7562,4.7603,4.7704,4.7748,4.7814,4.7831,4.7856,4.7916,4.7935,4.8053,4.8031,4.8106,4.8244,4.8292,4.8334,4.8506,4.8486,4.8531,4.8617,4.8695,4.8714,4.8732,4.8794,4.8816,4.8545,4.8545,4.8545,0,4.7629,4.7754,4.7758,4.7852,4.7899,4.7874,4.7977,4.802,4.8107,4.8141,4.8104,4.8277,4.8319,4.8464,4.8506,4.8541,4.857,4.8523,4.8711,4.8728,4.8745,4.8804,4.8828,4.855,4.855,4.8549,4.8549,0,4.7834,4.7921,4.7995,4.8079,4.8135,4.8233,4.8253,4.8309,4.8305,4.8326,4.8448,4.8497,4.8583,4.8618,4.8615,4.8764,4.8742,4.8709,4.8643,4.8773,4.8829,4.8852,4.8558,4.8556,4.8554,4.8553,0,0,4.8027,4.8113,4.814,4.8179,4.825,4.8318,4.8415,4.8499,4.8547,4.8609,4.8691,4.8809,4.8778,4.8826,4.8829,4.8897,4.9032,4.8855,4.8856,4.8887,4.92,4.9225,4.9252,4.9019,4.9023,4.9026,4.9195,0,4.8186,4.8356,4.8364,4.8519,4.86,4.8578,4.8663,4.8717,4.874,4.8813,4.8839,4.8922,4.8875,4.8904,4.8971,4.9001,4.9095,4.8989,4.9097,4.91,4.9081,4.9281,4.9308,4.9464,4.9217,4.922,4.9223,0,4.8395,4.8462,4.8626,4.8686,4.8721,4.8797,4.8875,4.8945,4.9005,4.9018,4.9072,4.9065,4.9166,4.9097,4.9237,4.9165,4.9209,4.9231,4.9237,4.9248,4.917,4.9297,4.9514,4.9538,4.9258,4.9255,4.9252,0,4.852,4.8652,4.8768,4.8801,4.8874,4.8928,4.8962,4.9018,4.9068,4.9137,4.917,4.925,4.9294,4.9356,4.9371,4.9319,4.9512,4.9443,4.9526,4.9525,4.9567,4.9564,4.9795,4.9595,4.9595,4.9594,4.9594,0,4.8698,4.8799,4.8825,4.8896,4.9009,4.9017,4.9129,4.9159,4.9209,4.9286,4.9272,4.9345,4.936,4.9437,4.9449,4.9564,4.9584,4.9597,4.96,4.9599,4.9597,4.9628,4.9618,4.9601,4.9599,4.9598,4.9597,0,4.8857,4.8878,4.9003,4.9062,4.9079,4.916,4.9211,4.928,4.9301,4.9399,4.9423,4.9457,4.9547,4.9568,4.9675,4.9683,4.9819,4.9811,4.9798,4.9798,4.9879,4.9871,5.0138,5.0173,4.995,4.9952,4.9954,0,4.8969,4.9046,4.9114,4.9164,4.9199,4.9281,4.9332,4.9343,4.9397,4.9473,4.9533,4.9621,4.9691,4.9836,4.9871,4.9953,4.9946,5.0034,4.9959,4.9956,4.9949,4.9944,4.9952,5.0049,5.0051,5.0053,5.0054,0,4.9166,4.9172,4.9246,4.9325,4.9386,4.9449,4.9509,4.9551,4.9571,4.9633,4.9723,4.9778,4.9887,4.9975,5.0057,5.0092,5.0078,5.0078,5.0101,5.0102,5.0092,5.0099,4.9838,5.0072,5.007,5.0069,5.0068,5.0067,4.9305,4.9373,4.9431,4.9515,4.9561,4.9617,4.9685,4.9715,4.9791,4.988,4.9882,4.9981,5.0042,5.0151,5.0191,5.027,5.0243,5.0277,5.0285,5.0294,5.0301,5.0079,5.0285,5.0284,5.0284,5.0283,5.0283,0,4.9501,4.9538,4.9614,4.9698,4.9764,4.9744,4.9809,4.9866,4.9953,5.001,5.008,5.0185,5.0271,5.0313,5.0398,5.0453,5.0448,5.0475,5.0471,5.048,5.032,5.0291,5.0477,5.0477,5.0477,5.0477,5.0477,5.0477,4.9611,4.9726,4.974,4.9877,4.9913,5.001,5.0049,5.0102,5.0147,5.0265,5.0335,5.0362,5.0414,5.0503,5.058,5.0591,5.0623,5.0653,5.066,5.051,5.0491,5.0472,5.0445,5.066,5.066,5.0813,5.0815,5.0816]},{"header":{"parameterUnit":"m.s-1","parameterCategory":1,"la1":30.2991,"la2":30.254,"lo1":-89.0895,"lo2":-89.0444,"dy":0.0017,"dx":0.0017,"nx":28,"ny":28,"refTime":"2024-04-11T21:00:00:Z","depth":0,"parameterNumber":3,"parameterNumberName":"V-component_of_WINDS"},"data":[0,0,0,0,0,0,0,0,0,0,0,0,0,0,0,0,0,0,0,0,0,0,0,0,0,0,0,0,0,0,0,0,0,0,0,0,0,0,0,0,0,0,0,0,0,0,0,0,0,0,0,0,0,0,0,0,0,0,-3.3863,-3.3865,0,-3.4037,-3.4039,-3.4041,-3.4055,-3.4053,-3.4051,-3.405,-3.4229,-3.4235,-3.4242,0,0,0,0,0,0,0,0,0,0,0,0,0,-3.3545,-3.3551,-3.3863,-3.3865,-3.3867,-3.4036,-3.4039,-3.4041,-3.4056,-3.4053,-3.4051,-3.4049,-3.4227,-3.4234,-3.4242,0,0,0,0,0,0,0,0,0,0,0,0,0,-3.3698,-3.3553,-3.3863,-3.3895,-3.3899,-3.4036,-3.4039,-3.4042,-3.4056,-3.4053,-3.405,-3.4048,-3.4224,-3.4234,-3.4243,-3.436,0,0,-3.4273,-3.4277,0,0,0,0,0,0,0,0,-3.3689,-3.3709,-3.3888,-3.3893,-3.3898,-3.4021,-3.3993,-3.4149,-3.4057,-3.3997,-3.405,-3.4046,-3.4162,-3.4177,-3.4216,-3.4368,-3.4376,-3.4274,-3.428,-3.4284,-3.4287,0,0,0,0,0,0,0,-3.3678,-3.3702,-3.3932,-3.389,-3.3897,-3.3901,-3.392,-3.4022,-3.4093,-3.4002,-3.4003,-3.4023,-3.4164,-3.4206,-3.422,-3.4379,-3.4274,-3.4282,-3.4288,-3.4292,-3.4637,-3.464,0,0,0,0,0,0,-3.3661,-3.3693,-3.3926,-3.3937,-3.3784,-3.3909,-3.393,-3.3985,-3.4092,-3.4106,-3.4026,-3.4023,-3.4191,-3.4209,-3.4226,-3.4371,-3.4284,-3.4293,-3.4299,-3.4634,-3.4638,-3.4641,0,0,0,0,0,0,-3.3655,-3.3682,-3.3919,-3.3815,-3.3846,-3.3918,-3.3979,-3.399,-3.4031,-3.411,-3.4123,-3.4055,-3.4189,-3.4213,-3.4327,-3.4377,-3.4298,-3.4306,-3.463,-3.4635,-3.464,-3.466,0,0,0,0,0,0,-3.3645,-3.368,-3.3724,-3.3816,-3.3851,-3.4016,-3.3982,-3.3995,-3.4048,-3.4047,-3.4141,-3.4154,-3.4189,-3.4312,-3.4337,-3.4389,-3.4314,-3.4626,-3.4632,-3.4638,-3.4655,-3.4665,-3.4674,0,0,0,0,0,-3.3634,-3.3723,-3.3726,-3.3754,-3.3909,-3.4019,-3.4039,-3.4077,-3.4052,-3.4098,-3.4149,-3.4151,-3.4368,-3.4324,-3.4351,-3.4408,-3.4623,-3.463,-3.4638,-3.4651,-3.4663,-3.4674,0,0,0,0,0,0,-3.3635,-3.3736,-3.374,-3.3862,-3.3932,-3.4021,-3.408,-3.4089,-3.4167,-3.4163,-3.4207,-3.4228,-3.4341,-3.4386,-3.4335,-3.4527,-3.4493,-3.4506,-3.4494,-3.4506,-3.4515,-3.4502,-3.4322,0,0,0,0,0,-3.3649,-3.373,-3.3814,-3.3913,-3.3948,-3.4008,-3.4058,-3.4081,-3.4155,-3.4185,-3.4244,-3.4317,-3.4401,-3.4456,-3.4538,-3.4662,-3.4683,-3.4714,-3.4724,-3.4731,-3.4742,-3.4812,-3.4827,-3.4666,-3.4666,-3.4666,0,0,-3.368,-3.3745,-3.3793,-3.3915,-3.3972,-3.4055,-3.4033,-3.4122,-3.4185,-3.4199,-3.431,-3.4356,-3.444,-3.456,-3.4616,-3.4601,-3.4791,-3.474,-3.4745,-3.4753,-3.4821,-3.4836,-3.485,-3.4671,-3.467,-3.4669,0,0,-3.3778,-3.3835,-3.3924,-3.3982,-3.4068,-3.4108,-3.4129,-3.4218,-3.4249,-3.4362,-3.4375,-3.445,-3.4594,-3.4654,-3.4703,-3.4825,-3.4831,-3.4851,-3.4899,-3.4967,-3.4979,-3.4991,-3.5035,-3.505,-3.4861,-3.4862,-3.4862,0,-3.3805,-3.3931,-3.3969,-3.4058,-3.4112,-3.4128,-3.422,-3.4274,-3.4383,-3.442,-3.4401,-3.4584,-3.4641,-3.4776,-3.4806,-3.4845,-3.4871,-3.484,-3.4974,-3.4986,-3.4997,-3.504,-3.5057,-3.4863,-3.4863,-3.4863,-3.4863,0,-3.396,-3.4048,-3.4109,-3.4214,-3.4275,-3.4364,-3.4417,-3.4474,-3.4492,-3.4534,-3.4649,-3.4719,-3.4816,-3.4849,-3.4868,-3.4987,-3.4975,-3.4965,-3.4931,-3.5014,-3.5055,-3.5072,-3.4866,-3.4865,-3.4865,-3.4864,0,0,-3.4064,-3.4189,-3.4211,-3.426,-3.4357,-3.4425,-3.4516,-3.4611,-3.4659,-3.4734,-3.4812,-3.4934,-3.4926,-3.4981,-3.5007,-3.5066,-3.516,-3.5049,-3.5052,-3.5068,-3.5297,-3.5304,-3.5322,-3.5164,-3.5167,-3.517,-3.529,0,-3.4174,-3.4335,-3.4373,-3.4512,-3.4594,-3.4611,-3.469,-3.4759,-3.4801,-3.4876,-3.4923,-3.5009,-3.4991,-3.5025,-3.5084,-3.5136,-3.5206,-3.5127,-3.5238,-3.5241,-3.5216,-3.5344,-3.5352,-3.5461,-3.5306,-3.5309,-3.5311,0,-3.4323,-3.4401,-3.4549,-3.4636,-3.4672,-3.4742,-3.4832,-3.4904,-3.4983,-3.5009,-3.5072,-3.5092,-3.5188,-3.5149,-3.5283,-3.5229,-3.5276,-3.5308,-3.5313,-3.5326,-3.5281,-3.536,-3.5497,-3.5514,-3.5336,-3.5334,-3.5332,0,-3.4385,-3.4527,-3.4634,-3.4674,-3.4779,-3.4828,-3.4874,-3.495,-3.5004,-3.5084,-3.512,-3.5209,-3.5258,-3.5327,-3.5371,-3.5339,-3.5502,-3.5466,-3.5527,-3.5526,-3.5561,-3.5558,-3.5708,-3.559,-3.559,-3.559,-3.5589,0,-3.4504,-3.4593,-3.4663,-3.4729,-3.483,-3.4872,-3.4972,-3.5018,-3.5085,-3.5161,-3.5181,-3.5252,-3.5305,-3.5383,-3.5418,-3.5524,-3.5546,-3.5571,-3.5579,-3.5569,-3.5566,-3.5601,-3.5595,-3.5594,-3.5593,-3.5592,-3.5591,0,-3.459,-3.464,-3.4758,-3.4847,-3.4871,-3.4942,-3.5019,-3.5084,-3.5126,-3.5221,-3.5246,-3.5313,-3.5406,-3.5457,-3.5574,-3.5597,-3.5716,-3.572,-3.5689,-3.5693,-3.5751,-3.5745,-3.593,-3.5956,-3.582,-3.5821,-3.5822,0,-3.4663,-3.4732,-3.4829,-3.4881,-3.4927,-3.5011,-3.5067,-3.5112,-3.5169,-3.5265,-3.5318,-3.5413,-3.5491,-3.5639,-3.5698,-3.5788,-3.5795,-3.5853,-3.5809,-3.5797,-3.5797,-3.5792,-3.58,-3.5861,-3.5863,-3.5864,-3.5864,0,-3.4787,-3.4808,-3.4888,-3.4977,-3.5044,-3.5116,-3.5188,-3.5229,-3.5286,-3.535,-3.5445,-3.5506,-3.5625,-3.5719,-3.5814,-3.5862,-3.5874,-3.5878,-3.5897,-3.5888,-3.5868,-3.588,-3.5712,-3.5874,-3.5873,-3.5872,-3.5872,-3.5871,-3.4869,-3.4932,-3.501,-3.5099,-3.5157,-3.5224,-3.5289,-3.534,-3.542,-3.5521,-3.5543,-3.5644,-3.5722,-3.585,-3.5901,-3.5981,-3.597,-3.5997,-3.6004,-3.601,-3.6013,-3.5854,-3.5999,-3.5998,-3.5998,-3.5998,-3.5998,0,-3.4995,-3.5046,-3.5127,-3.5227,-3.5297,-3.5301,-3.5381,-3.5439,-3.5528,-3.5599,-3.5676,-3.5786,-3.5877,-3.5944,-3.6037,-3.6089,-3.6097,-3.6112,-3.6109,-3.612,-3.6017,-3.5992,-3.6105,-3.6105,-3.6105,-3.6104,-3.6104,-3.6104,-3.5069,-3.5176,-3.5206,-3.5343,-3.5394,-3.5493,-3.5538,-3.56,-3.5658,-3.578,-3.5856,-3.5898,-3.5969,-3.6067,-3.6152,-3.6169,-3.6203,-3.6218,-3.6236,-3.6139,-3.6127,-3.6117,-3.6093,-3.6225,-3.6225,-3.6333,-3.6334,-3.6334]}]]